BREEZE-M DEB, 32028

Orbit data source: Space-Track

BREEZE-M DEB, 32028 is space debris in HEO originally from a launch on Tue, 28 Feb 2006 UTC launched from the Tyuratam Missile And Space Complex (TTMTR). Debris objects in space refer to the collection of defunct objects orbiting the Earth. Examples of debris include non-operational satellites, rocket bodies, and fragments generated from explosions, collisions, or faulty payload assembly.

Loading next visibility...
Identifier
32028, 2006-006F
Orbit
HEO
Country
Flag of CISCIS
Related business
Manufacturer
Khrunichev
Mission
Spacecraft
Bus & Motor
Unknown
Mass
Unknown
Launch date (UTC)
2006-02-28 (20 years ago)
Launch vehicle
Unknown
Launch site
Tyuratam Missile And Space Complex (TTMTR)
Object type
Payload
Rocket body
Debris
Shape & HBR
Unknown shape, 0.2 m
Radar Cross Section
Medium (>0.1 m² and <1 m²)

Expand to show TLE details & history
Last TLE update: 3 months ago

TLE from 3 months ago
0 BREEZE-M DEB
1 32028U 06006F   26071.97418153  .00001582  00000-0  25576-2 0  9994
2 32028  51.7376 327.7863 4976673 251.6992  49.6823  5.41771609360122
Epoch: 2026-03-12T23:22Z
TLE epoch observation values (Epoch: 2026-03-12T23:22:49.284Z)
Latitude
-0.00001°
Longitude
166.47537°
Altitude
5,847.199 km
Speed
6.009 km/s
True Right ascension
21h 51m 11s
True Declination
0° 00' 00"
Sunlit
Object was in daylight at epoch
Visualization orbit readout
Latitude
Unknown
Longitude
Unknown
Altitude
Unknown
Speed
Unknown
Apparent Right ascension
Unknown
Apparent Declination
Unknown
Sunlit
N/A
Visualization observer readout
Local Sidereal Time
11:30:52
Azimuth
Unknown
Elevation
Unknown
Doppler factor
Unknown
Orbital elements
Apogee altitude
14,131.205 km
Perigee altitude
500.903 km
Semi-major axis
13,694.191 km
Eccentricity
0.49767
Inclination
51.7376°
RAAN
327.7863°
Arg. of periapsis
251.6992°
True anomaly
108.39397°
Mean anomaly
49.6823°
Eccentric anomaly
77.52312°
Mean motion
1.35437 °/min
Orbital period
265.81 mins
BSTAR
0.0025576
Loading maneuver chart data...
Computing Atmospheric mass density...
Loading historical data...
Loading historical data...
Loading historical data...
Loading historical data...
Loading historical data...
Loading historical data...
Loading historical data...

Documentation

Showing up to 5 results
|